W0KHZ Weather Reports


time (UTC)temp
F
wind
direction
speed
knots
gust
knots
rain 1hr
in
rain 24hr
in
rain mn
in
humidity
%
barometer
mb
20260903203019 81 147 1.7 6.1 0.00 0.22 0.22 78 1039.8
20260903202517 81 183 0.9 2.6 0.00 0.22 0.22 78 1039.8
20260903202032 81 191 0.0 0.9 0.00 0.22 0.22 78 1040.0
20260903201530 81 191 0.0 0.9 0.00 0.22 0.22 78 1040.1
20260903201047 81 0.0 0.0 0.00 0.22 0.22 78 1039.9
20260903200524 81 191 0.0 0.9 0.00 0.22 0.22 78 1039.9
20260903200021 81 191 0.0 0.9 0.00 0.22 0.22 77 1040.0
20260903195518 81 0.0 0.0 0.00 0.22 0.22 76 1040.0
20260903195034 81 182 0.9 5.2 0.00 0.22 0.22 77 1040.1
20260903194531 81 158 0.9 1.7 0.00 0.22 0.22 76 1040.1
20260903194028 81 157 1.7 3.5 0.00 0.22 0.22 77 1040.1
20260903193525 81 143 0.9 2.6 0.00 0.22 0.22 78 1040.2
20260903193022 81 143 0.0 0.9 0.00 0.22 0.22 79 1040.4
20260903192519 81 149 0.9 3.5 0.00 0.22 0.22 79 1040.6
20260903192016 81 180 0.9 6.1 0.00 0.22 0.22 81 1040.6
20260903191552 81 187 0.0 0.9 0.00 0.22 0.22 82 1040.7
20260903191029 81 187 0.0 0.9 0.00 0.22 0.22 81 1040.9
20260903190526 81 0.0 0.0 0.00 0.22 0.22 81 1040.9
20260903185540 81 0.0 0.0 0.00 0.22 0.22 80 1040.6
20260903185017 81 187 0.9 1.7 0.00 0.22 0.22 80 1040.5
20260903184533 80 187 0.0 0.9 0.00 0.22 0.22 80 1040.4
20260903184050 80 184 1.7 5.2 0.00 0.22 0.22 80 1040.4
20260903183528 80 155 0.9 2.6 0.00 0.22 0.22 81 1040.1
20260903183024 80 148 0.9 3.5 0.00 0.22 0.22 82 1040.1
20260903182521 79 162 1.7 5.2 0.00 0.22 0.22 82 1040.1
20260903182039 79 157 1.7 6.1 0.00 0.22 0.22 82 1040.1
20260903181537 79 172 0.0 3.5 0.00 0.22 0.22 82 1040.3
20260903181033 79 172 0.9 2.6 0.00 0.22 0.22 83 1040.4
20260903180530 78 172 0.9 2.6 0.00 0.22 0.22 84 1040.4
20260903180048 78 172 0.0 2.6 0.00 0.22 0.22 83 1040.6
20260903175525 78 172 0.9 2.6 0.00 0.22 0.22 84 1040.6
20260903175022 78 189 0.9 3.5 0.00 0.22 0.22 85 1040.5
20260903174539 77 203 0.0 0.9 0.00 0.22 0.22 86 1040.5
20260903174016 77 203 0.0 1.7 0.00 0.22 0.22 87 1040.5
20260903173532 76 203 0.0 2.6 0.00 0.22 0.22 88 1040.7
20260903173028 76 203 0.0 0.9 0.00 0.22 0.22 87 1040.8
20260903172526 75 203 0.0 1.7 0.00 0.22 0.22 88 1040.8
20260903172023 75 203 0.0 0.9 0.00 0.22 0.22 89 1040.5
20260903171520 74 203 0.0 3.5 0.00 0.22 0.22 91 1040.3
20260903171018 73 0.0 0.0 0.01 0.22 0.22 92 1040.5
20260903170533 72 190 0.0 1.7 0.02 0.22 0.22 92 1040.4
20260903170030 72 0.0 0.0 0.02 0.22 0.22 92 1040.3
20260903165527 72 183 0.0 0.9 0.02 0.22 0.22 92 1040.7
20260903165024 71 0.0 0.0 0.02 0.22 0.22 92 1040.9
20260903164521 71 0.0 0.0 0.02 0.22 0.22 92 1040.8
20260903164018 71 183 0.0 1.7 0.03 0.22 0.22 92 1040.6
20260903163534 71 183 0.9 5.2 0.04 0.22 0.22 92 1040.3
20260903163050 71 159 1.7 3.5 0.04 0.22 0.22 92 1040.5
20260903162527 71 181 0.0 2.6 0.04 0.22 0.22 92 1040.7
20260903162024 71 215 0.0 1.7 0.05 0.22 0.22 92 1040.8
20260903161522 71 0.0 0.0 0.05 0.22 0.22 92 1041.6
20260903161019 70 0.0 0.0 0.04 0.21 0.21 92 1042.0
20260903160516 70 0.0 0.0 0.05 0.20 0.20 92 1041.7
20260903160032 70 0.0 0.0 0.05 0.20 0.20 92 1041.5
20260903155529 70 0.0 0.0 0.05 0.20 0.20 92 1041.7
20260903155026 70 224 0.0 0.9 0.04 0.20 0.20 92 1041.2
20260903154523 70 229 0.9 1.7 0.04 0.20 0.20 92 1040.9
20260903154040 70 0.0 0.0 0.03 0.19 0.19 92 1041.0
20260903153517 70 246 0.0 0.9 0.02 0.18 0.18 92 1040.9
20260903153033 70 246 0.0 1.7 0.02 0.18 0.18 92 1041.1
20260903152530 70 247 0.0 1.7 0.02 0.18 0.18 92 1041.5
20260903152026 70 265 0.0 2.6 0.01 0.17 0.17 92 1041.3
20260903151524 70 89 0.0 0.9 0.01 0.17 0.17 92 1040.3
20260903151021 70 0.0 0.0 0.01 0.17 0.17 92 1040.3
20260903150518 71 0.0 0.0 0.00 0.16 0.16 92 1040.8
20260903150035 70 0.0 0.0 0.00 0.16 0.16 92 1040.8
20260903145531 70 0.0 0.0 0.00 0.16 0.16 92 1040.4
20260903145029 70 0.0 0.0 0.00 0.16 0.16 92 1040.4
20260903144525 70 0.0 0.0 0.00 0.16 0.16 92 1040.4
20260903144022 70 0.0 0.0 0.00 0.16 0.16 92 1040.3
20260903143539 70 0.0 0.0 0.01 0.16 0.16 92 1040.6
20260903143016 70 0.0 0.0 0.01 0.16 0.16 92 1040.6
20260903142532 69 0.0 0.0 0.01 0.16 0.16 92 1040.5
20260903142030 69 0.0 0.0 0.02 0.16 0.16 92 1040.9
20260903141527 69 0.0 0.0 0.02 0.16 0.16 92 1041.0
20260903141025 69 0.0 0.0 0.03 0.16 0.16 92 1041.0
20260903140542 69 0.0 0.0 0.04 0.16 0.16 92 1041.0
20260903140019 69 0.0 0.0 0.04 0.15 0.15 92 1041.2
20260903135517 69 0.0 0.0 0.05 0.15 0.15 92 1041.0
20260903135033 69 0.0 0.0 0.06 0.15 0.15 92 1041.5
20260903134530 69 0.0 0.0 0.07 0.15 0.15 92 1041.2
20260903134028 69 0.0 0.0 0.08 0.15 0.15 92 1041.3
20260903133525 69 0.0 0.0 0.08 0.15 0.15 92 1041.4
20260903133022 69 0.0 0.0 0.09 0.15 0.15 92 1041.8
20260903132519 69 0.0 0.0 0.09 0.15 0.15 92 1041.9
20260903132035 69 0.0 0.0 0.09 0.14 0.14 92 1042.1
20260903131531 69 0.0 0.0 0.09 0.13 0.13 92 1042.0
20260903131028 69 0.0 0.0 0.08 0.13 0.13 92 1042.4
20260903130526 69 0.0 0.0 0.07 0.12 0.12 92 1042.7
20260903130023 69 0.0 0.0 0.07 0.11 0.11 92 1043.0
20260903125540 69 0.0 0.0 0.06 0.10 0.10 92 1043.1
20260903125018 70 0.0 0.0 0.06 0.10 0.10 92 1043.3
20260903124534 70 0.0 0.0 0.04 0.08 0.08 92 1043.2
20260903124031 70 0.0 0.0 0.04 0.07 0.07 92 1043.0
20260903123527 70 0.0 0.0 0.04 0.07 0.07 92 1042.6
20260903123025 70 0.0 0.0 0.04 0.06 0.06 92 1042.6
20260903122522 70 0.0 0.0 0.04 0.05 0.05 92 1042.5
20260903122019 70 0.0 0.0 0.05 0.05 0.05 92 1042.7
20260903121516 70 0.0 0.0 0.05 0.05 0.05 92 1042.8
20260903121032 70 0.0 0.0 0.05 0.05 0.05 92 1042.5
20260903120530 70 0.0 0.0 0.04 0.04 0.04 92 1042.2
20260903120027 70 0.0 0.0 0.04 0.04 0.04 92 1042.3
20260903115524 70 0.0 0.0 0.04 0.04 0.04 92 1042.3
20260903115041 70 0.0 0.0 0.04 0.04 0.04 92 1042.4
20260903114518 70 0.0 0.0 0.04 0.04 0.04 92 1042.4
20260903114035 70 0.0 0.0 0.04 0.04 0.04 92 1042.2
20260903113551 70 0.0 0.0 0.03 0.04 0.03 92 1041.9
20260903113028 69 0.0 0.0 0.02 0.03 0.02 92 1041.7
20260903112525 69 0.0 0.0 0.02 0.03 0.02 92 1041.3
20260903112042 69 0.0 0.0 0.00 0.02 0.00 92 1040.9
20260903111519 69 0.0 0.0 0.00 0.02 0.00 92 1040.8
20260903111016 69 0.0 0.0 0.00 0.03 0.00 92 1040.5
20260903110552 69 0.0 0.0 0.00 0.04 0.00 92 1040.4
20260903110109 69 0.0 0.0 0.00 0.04 0.00 92 1040.2
20260903105526 69 0.0 0.0 0.00 0.04 0.00 92 1040.3
20260903105023 69 0.0 0.0 0.00 0.04 0.00 92 1040.4
20260903104521 69 0.0 0.0 0.00 0.04 0.00 92 1040.6
20260903104018 69 0.0 0.0 0.00 0.04 0.00 92 1040.7
20260903103535 69 0.0 0.0 0.00 0.05 0.00 92 1040.3
20260903103031 69 0.0 0.0 0.00 0.05 0.00 92 1040.3
20260903102527 68 0.0 0.0 0.00 0.05 0.00 92 1040.2
20260903102025 68 0.0 0.0 0.00 0.05 0.00 92 1040.1
20260903101522 69 0.0 0.0 0.00 0.07 0.00 92 1039.8
20260903101019 69 0.0 0.0 0.00 0.07 0.00 92 1039.8
20260903100516 69 0.0 0.0 0.00 0.07 0.00 92 1039.8
20260903100031 69 0.0 0.0 0.00 0.08 0.00 92 1039.7
20260903095528 69 0.0 0.0 0.00 0.09 0.00 92 1039.8
20260903095026 69 0.0 0.0 0.00 0.09 0.00 92 1040.0
20260903094523 69 0.0 0.0 0.00 0.09 0.00 92 1039.8
20260903094020 69 0.0 0.0 0.00 0.09 0.00 92 1039.6
20260903093518 68 0.0 0.0 0.00 0.09 0.00 92 1039.7
20260903093033 68 0.0 0.0 0.00 0.09 0.00 92 1039.8
20260903092530 68 0.0 0.0 0.00 0.09 0.00 92 1039.6
20260903092027 68 0.0 0.0 0.00 0.09 0.00 92 1039.5
20260903091524 68 0.0 0.0 0.00 0.09 0.00 92 1039.6
20260903091041 68 0.0 0.0 0.00 0.09 0.00 92 1039.5
20260903090519 68 0.0 0.0 0.00 0.09 0.00 92 1039.5
20260903090036 68 0.0 0.0 0.00 0.09 0.00 92 1039.5
20260903085532 68 0.0 0.0 0.00 0.09 0.00 92 1039.5
20260903085049 68 0.0 0.0 0.00 0.09 0.00 92 1039.5
20260903084526 68 0.0 0.0 0.00 0.09 0.00 92 1039.7
20260903084023 69 0.0 0.0 0.00 0.09 0.00 92 1039.7
20260903083520 69 0.0 0.0 0.00 0.09 0.00 92 1039.6
20260903083017 69 0.0 0.0 0.00 0.09 0.00 92 1039.7
20260903082534 69 0.0 0.0 0.00 0.09 0.00 92 1039.8
20260903082110 69 0.0 0.0 0.00 0.09 0.00 92 1039.7
20260903081527 69 0.0 0.0 0.00 0.09 0.00 92 1039.6
20260903081025 69 0.0 0.0 0.00 0.09 0.00 92 1039.7
20260903080522 69 0.0 0.0 0.00 0.09 0.00 91 1039.7
20260903080019 69 0.0 0.0 0.00 0.09 0.00 92 1039.6
20260903075516 69 0.0 0.0 0.00 0.09 0.00 92 1039.7
20260903075112 69 0.0 0.0 0.00 0.09 0.00 91 1039.5
20260903074529 69 0.0 0.0 0.00 0.09 0.00 91 1039.6
20260903074026 69 0.0 0.0 0.00 0.10 0.00 91 1039.6
20260903073543 69 0.0 0.0 0.00 0.11 0.00 91 1039.6
20260903073020 69 0.0 0.0 0.00 0.18 0.00 91 1039.6
20260903072517 69 0.0 0.0 0.00 0.18 0.00 91 1039.6
20260903072033 69 0.0 0.0 0.00 0.18 0.00 91 1039.6
20260903071530 69 0.0 0.0 0.00 0.18 0.00 91 1039.7
20260903071027 69 0.0 0.0 0.00 0.18 0.00 91 1039.8
20260903070524 69 0.0 0.0 0.00 0.18 0.00 91 1039.8
20260903070022 69 0.0 0.0 0.00 0.18 0.00 91 1039.8
20260903065519 69 0.0 0.0 0.00 0.18 0.00 91 1039.9
20260903065017 69 0.0 0.0 0.00 0.18 0.00 91 1039.9
20260903064553 69 0.0 0.0 0.00 0.18 0.00 91 1040.1
20260903064050 69 0.0 0.0 0.00 0.18 0.00 91 1040.1
20260903063527 69 0.0 0.0 0.00 0.18 0.00 91 1040.2
20260903063045 69 0.0 0.0 0.00 0.18 0.00 91 1040.1
20260903062522 69 0.0 0.0 0.00 0.18 0.00 91 1040.2
20260903062020 69 0.0 0.0 0.00 0.18 0.00 91 1040.3
20260903061537 69 0.0 0.0 0.00 0.18 0.00 91 1040.2
20260903061032 69 0.0 0.0 0.00 0.18 0.00 91 1040.4
20260903060530 69 0.0 0.0 0.00 0.18 0.00 91 1040.3
20260903060027 69 0.0 0.0 0.00 0.18 0.00 91 1040.3
20260903055524 69 0.0 0.0 0.00 0.18 0.00 91 1040.3
20260903055021 69 0.0 0.0 0.00 0.18 0.00 91 1040.3
20260903054519 69 0.0 0.0 0.00 0.18 0.00 91 1040.3
20260903054016 69 0.0 0.0 0.00 0.18 0.00 91 1040.2
20260903053532 69 0.0 0.0 0.00 0.18 0.00 91 1040.3
20260903053030 70 0.0 0.0 0.00 0.18 0.00 91 1040.3
20260903052526 70 0.0 0.0 0.00 0.18 0.00 91 1040.3
20260903052044 70 0.0 0.0 0.00 0.18 0.00 91 1040.3
20260903051521 70 0.0 0.0 0.00 0.18 0.00 91 1040.4
20260903051018 70 0.0 0.0 0.00 0.18 0.00 91 1040.5
20260903050535 70 0.0 0.0 0.00 0.18 0.00 91 1040.4
20260903050031 70 0.0 0.0 0.00 0.18 0.18 90 1040.5
20260903045529 70 0.0 0.0 0.00 0.18 0.18 90 1040.4
20260903045025 70 0.0 0.0 0.00 0.18 0.18 90 1040.5
20260903044542 70 0.0 0.0 0.00 0.18 0.18 90 1040.5
20260903044020 70 0.0 0.0 0.00 0.18 0.18 90 1040.4
20260903043517 70 0.0 0.0 0.00 0.18 0.18 90 1040.5
20260903043032 70 0.0 0.0 0.00 0.18 0.18 90 1040.3
20260903042530 70 0.0 0.0 0.00 0.18 0.18 90 1040.5
20260903042046 70 0.0 0.0 0.00 0.18 0.18 90 1040.5
20260903041524 70 0.0 0.0 0.00 0.18 0.18 90 1040.5
20260903041020 70 0.0 0.0 0.00 0.18 0.18 90 1040.4
20260903040518 70 0.0 0.0 0.00 0.18 0.18 89 1040.6
20260903040034 70 0.0 0.0 0.00 0.18 0.18 89 1040.6
20260903035550 70 0.0 0.0 0.00 0.18 0.18 89 1040.6
20260903035047 70 0.0 0.0 0.00 0.18 0.18 89 1040.6
20260903034525 71 0.0 0.0 0.00 0.19 0.18 89 1040.5
20260903034022 71 0.0 0.0 0.00 0.19 0.18 89 1040.6
20260903033519 71 0.0 0.0 0.00 0.19 0.18 89 1040.7
20260903033016 71 0.0 0.0 0.00 0.19 0.18 89 1040.7
20260903032533 71 0.0 0.0 0.00 0.19 0.18 89 1040.7
20260903032029 71 0.0 0.0 0.00 0.19 0.18 88 1040.7
20260903031527 71 0.0 0.0 0.00 0.19 0.18 89 1040.6
20260903031024 71 0.0 0.0 0.00 0.19 0.18 89 1040.6
20260903030520 71 0.0 0.0 0.00 0.19 0.18 88 1040.7
20260903030018 71 0.0 0.0 0.00 0.19 0.18 88 1040.7
20260903025534 71 0.0 0.0 0.00 0.19 0.18 88 1040.7
20260903025050 71 0.0 0.0 0.00 0.19 0.18 88 1040.6
20260903024527 71 0.0 0.0 0.00 0.19 0.18 88 1040.7
20260903024024 72 0.0 0.0 0.00 0.19 0.18 88 1040.8
20260903023542 72 0.0 0.0 0.00 0.19 0.18 88 1040.8
20260903023039 72 0.0 0.0 0.00 0.19 0.18 87 1040.8
20260903022537 72 0.0 0.0 0.00 0.19 0.18 87 1040.7
20260903022033 72 0.0 0.0 0.00 0.19 0.18 87 1040.7
20260903021530 72 0.0 0.0 0.00 0.19 0.18 87 1040.6
20260903021026 73 0.0 0.0 0.00 0.19 0.18 87 1040.6
20260903020523 73 0.0 0.0 0.00 0.19 0.18 87 1040.6
20260903020021 73 0.0 0.0 0.00 0.19 0.18 86 1040.5
20260903015518 73 0.0 0.0 0.00 0.19 0.18 86 1040.5
20260903015035 73 0.0 0.0 0.00 0.19 0.18 86 1040.3
20260903014551 73 0.0 0.0 0.00 0.19 0.18 86 1040.3
20260903014028 73 0.0 0.0 0.00 0.19 0.18 85 1040.1
20260903013525 73 0.0 0.0 0.00 0.19 0.18 85 1040.1
20260903013022 73 0.0 0.0 0.00 0.19 0.18 85 1040.2
20260903012519 74 0.0 0.0 0.00 0.19 0.18 85 1040.1
20260903012017 74 0.0 0.0 0.00 0.19 0.18 85 1040.0
20260903011532 74 0.0 0.0 0.00 0.19 0.18 85 1039.9
20260903011029 74 0.0 0.0 0.00 0.19 0.18 84 1040.1
20260903010546 75 0.0 0.0 0.00 0.20 0.18 84 1040.0
20260903010023 75 0.0 0.0 0.00 0.20 0.18 83 1039.9
20260903005521 75 0.0 0.0 0.00 0.20 0.18 83 1039.9
20260903005018 76 0.0 0.0 0.00 0.20 0.18 82 1039.9
20260903004534 76 0.0 0.0 0.00 0.20 0.18 82 1040.0
20260903004030 76 0.0 0.0 0.00 0.20 0.18 82 1039.9
20260903003528 77 0.0 0.0 0.00 0.20 0.18 81 1040.0
20260903003025 77 0.0 0.0 0.00 0.20 0.18 80 1039.9
20260903002522 78 0.0 0.0 0.00 0.21 0.18 80 1039.9
20260903002019 78 0.0 0.0 0.00 0.21 0.18 79 1040.0
20260903001516 79 0.0 0.0 0.00 0.21 0.18 79 1040.0
20260903001031 80 0.0 0.0 0.00 0.21 0.18 78 1039.8
20260903000528 80 0.0 0.0 0.00 0.21 0.18 77 1039.9
20260903000025 81 0.0 0.0 0.00 0.21 0.18 76 1039.9
20260902235523 81 0.0 0.0 0.00 0.21 0.18 76 1039.8
20260902235020 81 0.0 0.0 0.00 0.22 0.18 75 1039.8
20260902234517 82 0.0 0.0 0.00 0.22 0.18 75 1039.9
20260902234034 82 0.0 0.0 0.00 0.22 0.18 75 1039.7
20260902233531 82 0.0 0.0 0.00 0.22 0.18 74 1039.8
20260902233048 83 0.0 0.0 0.00 0.22 0.18 73 1039.6
20260902232526 83 0.0 0.0 0.00 0.22 0.18 72 1039.4
20260902232023 84 0.0 0.0 0.00 0.22 0.18 72 1039.3
20260902231520 84 0.0 0.0 0.00 0.22 0.18 68 1039.2
20260902231017 84 145 0.0 0.9 0.00 0.26 0.18 69 1039.3
20260902230553 84 145 0.0 0.9 0.00 0.26 0.18 69 1039.6
20260902230109 84 0.0 0.0 0.00 0.26 0.18 67 1039.5
20260902225527 84 0.0 0.0 0.00 0.26 0.18 66 1039.6
20260902225024 84 145 0.0 0.9 0.00 0.26 0.18 66 1039.7
20260902224521 84 145 0.0 0.9 0.00 0.26 0.18 65 1039.6
20260902224018 84 0.0 0.0 0.00 0.26 0.18 66 1039.7
20260902223535 84 145 0.0 0.9 0.00 0.26 0.18 66 1039.7
20260902223031 85 145 0.0 1.7 0.00 0.26 0.18 66 1039.7
20260902222528 85 145 0.0 1.7 0.00 0.26 0.18 65 1039.7
20260902222025 85 145 0.0 0.9 0.00 0.26 0.18 65 1039.8
20260902221542 85 145 0.0 1.7 0.00 0.26 0.18 65 1039.8
20260902221019 85 144 0.0 0.9 0.00 0.26 0.18 66 1039.9
20260902220516 85 144 0.0 0.9 0.00 0.26 0.18 64 1040.0
20260902220032 86 144 0.0 0.9 0.00 0.26 0.18 64 1039.9
20260902215529 86 0.0 0.0 0.00 0.26 0.18 64 1039.8
20260902215027 86 144 0.0 1.7 0.00 0.26 0.18 63 1039.8
20260902214523 87 144 0.0 0.9 0.00 0.26 0.18 63 1039.8
20260902214021 87 144 0.0 1.7 0.00 0.26 0.18 64 1039.8
20260902213517 87 144 0.0 1.7 0.00 0.26 0.18 63 1039.7
20260902213054 87 144 0.0 0.9 0.00 0.26 0.18 63 1039.9
20260902212530 88 144 0.9 2.6 0.00 0.26 0.18 65 1039.8
20260902212027 88 145 0.0 0.9 0.00 0.26 0.18 63 1039.9
20260902211524 88 145 0.0 1.7 0.00 0.26 0.18 64 1039.9
20260902211041 88 145 0.0 0.9 0.00 0.26 0.18 64 1040.0
20260902210518 88 144 0.9 1.7 0.00 0.26 0.18 65 1040.0
20260902210015 88 144 0.9 1.7 0.00 0.26 0.18 65 1040.0
20260902205531 88 144 0.9 2.6 0.00 0.26 0.18 66 1040.1
20260902205048 88 145 0.9 1.7 0.00 0.26 0.18 66 1040.0
20260902204545 88 132 1.7 3.5 0.00 0.26 0.18 66 1040.1
20260902204022 88 128 1.7 2.6 0.00 0.26 0.18 66 1040.2
20260902203520 88 191 0.9 2.6 0.00 0.26 0.18 64 1040.3